Location: Alvediston
(51.0078°N, 2.0364°W)
Time: 08:35:51
(UTC+00:00)

Resurs 01 Rocket - Pass Details

Date: 27 February 2020
Orbit: 634 x 645 km, 98.0° (Epoch: 27 March)

Event Time Altitude Azimuth Distance (km) Brightness Sun altitude
Exits shadow 19:11:23 19° 66° (ENE) 1,511 3.0 -14.4°
Maximum altitude 19:11:44 20° 59° (ENE) 1,504 3.1 -14.4°
Drops below altitude 10° 19:14:54 10° 13° (NNE) 2,043 4.1 -14.9°
Sets 19:17:36 0° 357° (N) 2,955 5.2 -15.4°
